Regional Weather Roundup
Issued by NWS

Home | Current Version | Previous Version | Graphics & Text | Print | Product List | Glossary On
Versions: 1 2 3 4 5 6 7 8 9 10 11 12 13 14 15 16 17 18 19 20 21 22 23 24 25 26 27
000
ASUS45 KTFX 061010
RWRMT
MONTANA REGIONAL WEATHER ROUNDUP
NATIONAL WEATHER SERVICE GREAT FALLS MT
300 AM MST TUE DEC 06 2016

NOTE: "FAIR" INDICATES FEW OR NO CLOUDS BELOW 12000 FEET WITH NO
SIGNIFICANT WEATHER AND/OR OBSTRUCTIONS TO VISIBILITY.

MTZ001>007-043-061100-
WEST OF THE DIVIDE

CITY           SKY/WX    TMP DP  RH WIND       PRES   REMARKS
KALISPELL      MOCLDY    13   9  84 N7        30.00S WCI   3
MISSOULA       MOCLDY    20  14  77 SE7       29.97F WCI  11
BUTTE          CLEAR      2  -3  80 CALM      29.87F
MULLAN PASS    CLOUDY    10   7  87 SE9G18    29.75F WCI  -3
ANACONDA         N/A      1  -4  78 SW5       29.91S
DEER LODGE       N/A      9   3  78 CALM      29.94F
EUREKA           N/A     16  12  86 CALM      30.04S
HAMILTON         N/A     16   7  67 S6        29.95S WCI   7
LIBBY            N/A     10   9  92 CALM      30.02S
PLAINS           N/A     15   9  77 CALM      30.00F
RONAN            N/A     14   8  77 CALM      29.99F
$$

MTZ008-052>055-061100-
SOUTHWEST MONTANA

CITY           SKY/WX    TMP DP  RH WIND       PRES   REMARKS
BOZEMAN        CLOUDY    15  12  88 W5        29.96S
DILLON         CLOUDY     2  -6  69 S12       29.89S WCI -15
W YELLOWSTONE  CLOUDY    -2  -8  78 CALM      29.86F
THREE FORKS      N/A     14 -24  17 CALM      29.97S
TWIN BRIDGES     N/A      4  -7  60 E2        29.90F
$$

MTZ009-010-012-014-046-048-049-054-061100-
EAST SLOPES AND CENTRAL MONTANA

CITY           SKY/WX    TMP DP  RH WIND       PRES   REMARKS
CUT BANK       CLOUDY    -3  -7  82 N13       30.11R WCI -22
GREAT FALLS    CLOUDY     5   1  83 N6        30.11R WCI  -6
MALMSTROM AFB  FLURRIES   4   1  86 N7        30.14R WCI  -8
HELENA         CLOUDY     9   3  77 W6        30.05S WCI  -1
AUGUSTA        FLURRIES   4  -1  82 N8        30.03S WCI -10
BOWMANS CRNR   FLURRIES   2  -2  84 N3        30.03S
CHOTEAU          N/A      5   0  78 MISG      30.10S
CONRAD           N/A      2  -3  79 NW5       30.12R
FAIRFIELD      FLURRIES   5   1  83 NE6       30.08S WCI  -6
POWER          CLOUDY     1  -3  84 N7        30.09S WCI -12
RAYNESFORD     FLURRIES   5   1  84 NW7       30.07S WCI  -7
ULM            FLURRIES   3   0  86 N7        30.12S WCI  -9
$$

MTZ011-013-016-021-045-047-050-051-061100-
NORTH CENTRAL MONTANA

CITY           SKY/WX    TMP DP  RH WIND       PRES   REMARKS
HAVRE          CLOUDY     2  -4  76 NW10      30.20S WCI -14
LEWISTOWN      CLOUDY     3   0  87 W6        30.04R WCI  -8
CHINOOK          N/A      1  -6  71 W13       30.20S WCI -16
DENTON         FLURRIES   4   0  86 N6G17     30.05S WCI  -7
GEYSER         MOCLDY     4   0  83 W18G26    30.03S WCI -16
GRASS RANGE      N/A      5   1  81 W16       30.01R WCI -13
JUDITH GAP     FLURRIES  -1  -5  82 NW13G23   29.97S WCI -19
ROY            MOCLDY     4   0  86 MISG      30.05R
STANFORD       MOCLDY     2  -2  85 NW14      30.00R WCI -16
WINIFRED       FLURRIES   2  -1  88 MISG      30.06S
$$

MTZ017>020-022>027-061-062-061100-
NORTHEAST MONTANA

CITY           SKY/WX    TMP DP  RH WIND       PRES   REMARKS
GLASGOW        CLOUDY     4  -3  73 W24       30.09S WCI -19
JORDAN           N/A      3  -3  76 NW15      30.10R WCI -16
SIDNEY         FLURRIES   7   0  73 NW28G35   30.01R WCI -16
WOLF POINT     CLOUDY     7  -3  64 NW21      30.10R WCI -13
PLENTYWOOD       N/A      5   1  85 NW24G31   29.94F VSB 1   WCI -17
POPLAR           N/A      5  -2  72 NW23      30.05F WCI -17
SCOBEY           N/A      1 -10  60 NW18      30.00R WCI -20
$$

MTZ028>42-056>058-061100-
SOUTHCENTRAL AND SOUTHEAST MONTANA

CITY           SKY/WX    TMP DP  RH WIND       PRES   REMARKS
BAKER          MIX PCPN   5  -1  76 W26G36    29.95S WCI -18
BILLINGS       CLOUDY     8   4  83 NE8       30.04R WCI  -4
LIVINGSTON     FLURRIES  11   5  77 CALM      29.94S
MILES CITY     CLEAR      4  -4  69 W15       30.09R WCI -14
BIG TIMBER     CLOUDY     7   1  78 NE8       29.99R WCI  -6
EKALAKA          N/A      0  -8  68 W14       29.91S WCI -18
FORSYTH          N/A      5   0  78 W7        30.10S WCI  -7
HARLOWTON      MOCLDY     3  -1  83 N16       29.98S WCI -16
LAUREL           N/A     12  -2  53 N2        30.00S
$$

REGIONAL REPORTS...DAKOTAS

CITY           SKY/WX    TMP DP  RH WIND       PRES   REMARKS
WILLISTON      LGT SNOW   7   2  80 NW23G30   29.98R WCI -14
MINOT          HVY SNOW  13  10  88 W37G44    29.72S VSB 1/4 WCI -10
DICKINSON      MIX PCPN   5   0  79 NW36G44   29.84R WCI -21
BEACH          LGT SNOW   5   1  85 NW24G30   29.98R WCI -17
CROSBY         LGT SNOW   7   5  92 NW29G35   29.93S WCI -16
TIOGA          LGT SNOW   7   5  92 NW32G40   29.89R VSB 3/4 WCI -17
WATFORD CITY   CLOUDY     7   1  78 NW23G30   29.94S FOG     WCI -14
BISMARCK       LGT SNOW  13  11  92 NW26G41   29.74R VSB 1   WCI  -7
GRAND FORKS    CLOUDY    30  27  88 N20       29.31F FOG     WCI  17
FARGO          CLOUDY    24  19  81 S20       29.43F WCI  10
BUFFALO SD       N/A      8   1  73 NW31      29.84S WCI -15
RAPID CITY     CLEAR      8   1  73 CALM      29.92S
$$

REGIONAL REPORTS...WYOMING/IDAHO/WASHINGTON

CITY           SKY/WX    TMP DP  RH WIND       PRES   REMARKS
GILLETTE       CLEAR     -2  -5  87 NW6       29.95S WCI -14
SHERIDAN       LGT SNOW  12   8  84 VRB3      29.99S FOG
BUFFALO WY     CLEAR      5  -3  69 W6        29.92S WCI  -6
CODY           CLOUDY     4   1  88 S3        29.94R
YELLOWSTONE LA   N/A     -1  -4  87 CALM      29.81S
IDAHO FALLS    CLEAR      6   1  80 N5        29.95F
SALMON         CLOUDY     3   1  92 CALM      29.97F
BOISE          CLOUDY    26  10  50 SE14      29.93S WCI  14
SPOKANE        FLURRIES  26  20  77 NE7       29.94R WCI  18
$$

REGIONAL REPORTS...ALBERTA

CITY           SKY/WX    TMP DP  RH WIND       PRES   REMARKS
EDMONTON       CLOUDY    -2 -11  65 NW7       30.29R WCI -16
CALGARY        CLOUDY    -2 -13  60 N21G26    30.15R WCI -25
LETHBRIDGE     FLURRIES  -2  -9  71 N12       30.21R WCI -20
MEDICINE HAT   CLEAR     -6  -9  84 W8        30.24R WCI -21
WATERTON GATE    N/A     -8 -11  84 NE5         N/A
CARDSTON         N/A     -6 -11  77 NW3         N/A
MILK RIVER       N/A     -2  -6  84 NW5         N/A
ONEFOUR          N/A     -6  -9  84 NW18        N/A  WCI -29
$$

REGIONAL REPORTS...SASKATCHEWAN

CITY           SKY/WX    TMP DP  RH WIND       PRES   REMARKS
SWIFT CURRENT  FLURRIES  -6  -8  92 NW16G23   30.05R WCI -28
REGINA         CLOUDY     7   1  78 NW22      30.00S WCI -14
SASKATOON      FLURRIES   5  -4  66 NW16G22   30.11S WCI -14
CYPRESS HILLS    N/A     -9 -15  77 NW14G23     N/A  WCI -31
ROCKGLEN         N/A     -2  -6  84 NW14G22     N/A  WCI -21
$$




USA.gov is the U.S. government's official web portal to all federal, state and local government web resources and services.